SCP
2 2 2 2 2 1 1 1 1 1 1 1 1 1 1 1 1 1 1 1 1 1 1 1 1 1 1 1 1 1 1 0 1 1 0 0 0 0 0 0 0 0 0
2 2 2 2 2 2 2 2 2 1 1 1 1 1 1 1 1 1 1 1 1 1 1 1 1 1 1 1 1 1 1 1 1 1 1 0 0 0 0 0 0 0 0
2 2 2 2 2 2 2 2 2 2 1 1 1 1 1 1 1 1 1 1 1 1 1 1 1 1 1 1 1 1 1 1 1 1 1 1 1 1 1 1 0 0 0
2 2 1 2 2 2 2 2 2 2 2 2 2 1 1 1 1 1 1 1 1 1 1 1 1 1 1 1 1 1 1 1 1 1 1 1 1 1 1 1 1 1 0
2 2 2 2 2 2 2 2 2 2 2 2 2 1 1 1 1 1 1 1 1 1 1 1 1 1 1 1 1 1 1 1 1 1 1 1 1 1 1 1 1 1 1
2 2 1 1 1 1 1 2 2 2 2 2 1 1 1 1 1 1 1 1 1 1 1 1 1 1 1 2 2 2 1 1 1 1 1 1 1 1 1 1 1 1 1
1 1 1 1 1 1 1 1 1 2 2 2 1 1 1 0 0 1 1 1 1 1 1 1 1 1 2 2 2 2 2 1 1 1 1 1 1 1 1 1 1 1 1
1 1 1 1 1 1 1 1 1 1 1 1 1 1 0 0 0 0 0 0 1 1 1 1 1 1 1 1 2 2 1 1 1 1 1 1 1 1 1 1 1 1 1
1 1 1 1 0 1 1 1 1 1 1 1 1 1 0 0 0 0 0 0 0 1 1 1 1 1 1 1 1 1 1 1 1 1 1 1 1 1 2 2 1 1 1
1 1 1 1 1 1 1 1 1 1 1 1 1 1 0 0 0 0 0 0 0 0 0 0 1 1 1 1 1 1 1 1 1 1 1 1 1 1 2 2 2 1 1
1 1 1 0 1 1 1 1 1 1 1 1 1 1 0 0 0 0 0 0 0 0 0 0 1 1 1 1 1 1 1 1 1 1 1 1 1 1 1 2 2 2 2
1 0 0 0 1 1 1 1 1 1 1 1 1 0 0 0 0 0 0 0 0 0 0 0 1 1 1 1 1 1 1 1 1 1 1 1 1 1 1 1 1 2 1
1 1 0 0 0 1 1 1 0 0 0 0 0 0 0 0 0 0 0 0 0 0 0 0 1 1 1 0 0 1 1 1 1 0 1 1 1 1 1 1 1 1 1
1 1 0 0 0 0 0 0 0 0 0 0 0 0 0 0 0 0 0 0 0 0 0 0 0 1 1 0 0 0 1 1 1 0 0 0 1 1 1 1 1 1 1
1 1 0 0 0 0 0 0 0 0 0 0 0 0 0 0 0 0 0 0 0 0 0 0 0 1 1 0 0 0 0 0 0 0 0 0 0 0 0 1 1 1 1
1 1 0 0 0 0 0 0 0 0 0 0 0 0 0 0 0 0 0 0 0 0 0 0 0 0 1 1 1 1 1 0 0 0 0 0 0 0 0 0 0 0 0
1 1 0 0 0 0 0 0 0 0 1 0 0 0 0 0 0 0 0 0 0 0 0 0 0 0 1 1 1 1 1 0 0 0 0 0 0 0 0 0 0 0 0
1 1 0 0 0 0 1 1 1 1 1 1 1 1 1 1 1 1 0 0 0 0 0 0 0 0 0 1 1 1 0 0 0 0 0 0 0 0 0 0 0 0 0
1 1 0 0 0 0 1 1 1 1 1 1 1 2 1 1 1 1 1 1 0 0 0 0 0 0 0 0 0 0 0 0 0 0 0 0 0 0 0 0 0 0 0
1 1 1 1 1 1 1 1 2 2 2 2 2 2 2 2 2 1 1 1 1 0 0 0 0 0 0 0 0 0 0 0 0 0 0 0 0 0 0 0 0 0 0
1 1 1 1 1 1 1 1 1 2 2 3 3 3 3 2 2 1 1 1 1 0 0 0 0 0 0 0 0 0 0 0 0 0 0 0 0 0 0 0 0 0 0
2 1 1 1 1 1 1 1 1 2 3 4 4 4 3 2 1 1 0 0 0 0 0 0 0 0 0 0 1 0 0 0 0 0 0 0 0 0 0 0 0 0 0
3 2 2 2 2 1 1 0 0 1 2 3 4 3 3 2 1 1 1 0 0 0 0 0 0 0 0 0 0 0 0 0 0 0 0 0 0 0 0 0 0 0 0
4 4 3 2 2 2 2 1 0 0 1 2 2 2 2 2 2 2 1 1 1 1 0 0 0 0 0 0 0 0 0 0 0 0 0 0 0 0 0 0 0 0 0
6 5 4 3 3 3 2 1 0 0 1 1 1 1 1 2 1 1 1 1 1 1 1 0 0 0 0 0 0 0 0 0 0 0 0 0 0 0 0 0 0 0 0
7 6 5 4 4 4 3 1 0 0 1 1 1 1 1 1 1 1 1 1 1 1 1 1 0 0 0 0 0 0 0 0 0 0 0 0 0 0 0 0 0 0 0
Wind_Speed
2 2 1 1 1 2 2 1 1 1 1 1 2 2 3 2 2 2 5 11 11 10 10 9 9 10 10 10 9 9 9 9 8 8 8 8 8 8 8 8 8 7 8
3 3 2 1 1 2 2 1 2 1 0 1 1 1 2 2 1 2 3 6 9 10 9 10 10 10 10 11 10 10 10 10 9 8 8 8 8 8 8 8 8 7 7
3 2 2 2 1 2 3 2 1 1 1 1 1 2 1 0 1 1 1 2 4 8 10 10 10 10 10 11 11 11 10 10 10 9 9 9 8 8 9 9 9 8 8
3 2 2 2 2 2 2 2 1 1 0 0 1 2 1 1 2 2 2 2 2 3 7 10 10 10 10 12 12 12 11 10 10 10 10 10 10 9 9 9 9 9 9
3 2 2 2 0 1 2 1 2 1 0 1 2 2 1 1 1 2 1 2 2 2 3 8 11 10 11 12 13 13 13 12 12 12 12 11 11 11 10 10 10 10 10
3 2 3 2 1 2 2 2 1 1 1 1 3 1 2 2 1 1 2 2 2 3 3 3 5 7 11 10 11 12 13 13 13 13 13 13 12 12 11 11 11 11 11
3 2 3 2 1 3 2 1 0 1 1 0 2 2 2 3 3 2 1 1 0 1 1 2 2 2 4 10 10 10 12 13 13 13 13 12 12 12 12 13 13 12 13
3 3 3 2 2 2 2 1 0 1 1 1 1 2 1 1 1 2 2 2 1 1 0 1 2 2 1 2 5 9 9 11 12 13 13 13 13 13 13 14 14 14 14
3 3 3 2 2 2 2 1 1 1 1 0 1 1 2 2 2 0 0 2 2 1 1 1 2 2 3 2 3 6 8 8 10 12 12 12 13 14 14 15 15 15 15
4 4 3 2 1 2 2 1 2 1 1 1 1 1 1 2 1 1 1 1 1 2 1 1 0 0 1 1 2 4 6 6 7 8 10 11 12 13 14 15 17 17 17
3 4 3 2 1 2 3 3 3 2 2 3 2 1 1 0 2 1 1 1 1 1 1 1 1 0 0 1 2 3 4 4 4 5 7 8 11 13 14 16 17 18 18
3 4 4 3 2 2 3 2 2 1 2 3 3 3 2 2 2 2 2 2 1 1 0 1 1 1 0 2 3 4 4 3 3 3 4 5 7 10 13 15 16 17 18
4 4 4 3 2 3 2 2 1 1 2 2 2 2 3 2 2 2 2 3 3 2 1 1 1 1 1 3 3 3 3 4 3 3 4 5 6 8 10 12 14 16 16
5 6 5 4 3 3 2 2 1 2 2 0 1 1 2 2 2 2 2 2 3 3 2 0 1 1 1 2 3 1 2 4 4 5 5 6 6 7 7 9 10 12 13
6 6 5 4 3 2 2 1 1 1 2 1 1 1 1 2 1 1 1 1 2 3 3 2 1 1 1 1 3 2 1 4 6 7 8 8 8 7 7 7 8 9 9
6 6 4 4 4 3 2 2 2 2 2 1 1 0 1 2 2 2 2 2 2 2 3 3 2 1 1 2 2 2 3 6 9 11 11 11 10 10 9 9 9 9 10
6 5 4 4 4 4 3 2 2 2 2 2 2 2 2 2 2 3 3 2 2 2 3 3 3 2 2 3 3 3 4 5 6 12 13 13 12 12 11 10 10 10 11
5 5 5 4 5 5 4 4 4 3 3 3 3 2 2 3 2 3 3 3 3 3 3 5 4 4 4 4 4 5 6 7 5 8 11 13 14 14 13 13 12 12 12
6 6 5 5 5 4 4 4 4 3 3 3 3 3 3 3 3 3 3 3 3 4 3 4 4 4 4 4 4 5 6 5 7 8 10 13 14 15 15 15 14 14 13
7 6 6 5 5 5 5 5 5 4 4 4 3 3 4 4 4 4 4 4 4 4 4 4 5 4 4 4 3 3 4 3 5 6 6 6 10 15 16 16 16 16 15
8 7 6 6 6 6 6 6 5 6 5 5 5 5 5 6 6 5 5 3 3 3 4 4 5 4 4 3 3 3 4 4 4 4 4 5 4 5 8 13 16 16 16
7 7 7 7 7 7 6 6 5 4 3 4 5 5 6 7 9 11 11 10 8 6 6 5 5 5 5 4 3 4 4 4 5 3 3 5 4 4 4 5 11 16 18
8 7 7 7 7 5 7 7 7 4 5 5 5 5 7 8 6 6 9 13 13 15 14 9 9 9 8 6 5 5 5 6 6 5 5 7 5 6 6 8 12 13 15
7 7 7 7 6 7 10 10 9 6 6 7 7 7 7 7 9 6 6 7 8 9 12 12 11 12 11 8 7 7 7 7 7 7 7 8 7 6 8 6 9 12 13
7 7 6 7 7 7 10 11 10 6 6 8 9 9 9 9 10 11 8 8 8 8 11 14 15 15 16 15 10 6 6 7 9 7 5 6 6 6 5 5 7 12 14
6 7 7 7 8 7 10 12 12 6 7 7 7 8 11 12 11 11 8 8 9 9 9 9 9 10 12 13 16 12 9 9 9 8 6 5 5 4 5 5 5 5 7
Wind_Direction
125 113 103 130 138 123 132 140 144 77 354 333 323 1 347 22 34 99 140 161 163 165 171 178 186 189 187 186 184 183 184 184 181 179 179 177 174 170 170 167 162 161 160
122 129 140 137 114 119 122 153 136 136 284 321 324 341 331 347 4 83 135 163 173 175 180 188 193 196 195 194 192 192 193 193 188 187 189 188 185 182 181 179 176 173 171
133 149 149 157 139 143 148 149 141 153 207 273 312 303 269 311 350 15 121 153 177 189 191 193 195 199 200 202 202 200 199 199 194 193 195 196 193 192 191 189 186 183 181
147 160 148 141 157 160 143 144 134 131 118 289 270 273 266 204 218 222 220 187 182 185 194 201 201 202 205 207 208 206 203 203 202 201 202 202 200 200 199 198 196 192 190
143 127 102 92 146 115 94 94 89 75 289 293 262 233 259 229 197 241 216 212 195 185 185 200 205 205 208 212 213 211 207 206 207 207 208 210 209 206 204 205 204 199 196
122 113 114 109 122 92 80 74 82 177 240 255 293 263 236 234 210 212 250 233 190 199 193 189 194 212 215 216 216 215 212 210 210 211 213 215 216 213 209 208 209 207 204
122 101 106 122 95 93 94 93 71 238 227 47 318 292 241 204 192 182 203 286 188 166 146 160 189 200 202 216 219 218 217 215 214 215 217 219 220 218 214 213 212 211 210
142 137 111 139 103 112 116 123 85 318 294 102 316 310 291 132 283 187 169 184 130 50 20 216 181 190 204 181 203 214 220 222 221 221 222 224 225 223 222 220 217 215 214
140 99 111 88 94 124 111 89 15 359 356 339 62 6 357 24 336 110 146 127 137 159 224 222 206 190 201 190 183 205 218 228 230 229 228 228 228 226 225 226 224 220 219
139 128 117 98 74 89 112 178 100 357 345 327 101 103 92 73 345 346 314 96 162 196 195 267 28 102 234 183 175 176 203 220 236 240 239 236 233 229 229 232 230 227 224
147 140 129 119 108 88 87 59 65 20 357 3 358 8 28 169 238 252 296 320 274 200 155 149 123 113 171 151 124 118 164 197 228 245 253 253 245 237 233 234 235 233 229
163 150 140 134 125 99 93 81 62 66 43 30 3 354 355 354 352 344 333 312 311 333 102 107 152 154 162 115 104 113 152 171 207 240 257 267 265 253 244 239 239 238 235
156 145 132 129 112 105 116 110 104 60 53 37 353 336 355 356 359 356 342 333 337 309 257 202 172 144 132 104 106 101 164 179 197 229 253 264 267 266 255 243 240 240 238
133 135 132 144 141 155 148 122 177 162 130 118 301 13 329 319 345 354 350 344 327 313 312 288 125 120 93 104 136 204 198 198 216 233 247 258 264 263 262 250 244 243 241
134 139 145 149 150 144 115 128 204 89 118 233 280 185 273 316 327 339 343 332 320 318 319 330 27 86 112 116 165 232 252 224 232 237 243 246 250 252 253 253 250 246 246
115 140 153 157 161 158 169 204 220 179 164 203 235 316 326 316 337 334 304 294 291 292 297 320 319 343 17 316 268 290 286 267 244 241 238 238 241 244 245 246 246 246 245
138 154 166 171 174 178 183 199 252 183 200 232 255 234 230 275 308 318 310 300 281 281 283 296 312 318 303 278 273 269 272 258 249 246 237 233 233 235 237 240 242 242 244
164 173 179 185 194 190 187 203 237 227 217 227 239 254 256 257 234 260 288 296 293 285 272 282 291 288 279 268 251 249 268 273 270 265 241 231 230 231 233 236 237 238 241
180 182 187 195 209 199 191 207 230 245 247 246 245 250 256 266 265 256 267 274 282 286 276 274 280 272 268 269 268 270 271 269 273 274 253 232 230 231 234 236 237 237 238
186 189 192 199 208 213 209 209 216 228 241 249 253 254 256 256 258 258 262 259 265 275 277 274 271 272 267 264 260 265 279 269 274 284 286 264 236 232 235 237 237 236 236
194 191 195 201 209 217 220 213 214 225 225 237 245 245 247 244 243 244 259 267 279 277 279 282 283 285 281 290 286 284 286 285 275 275 275 274 258 239 232 237 240 239 236
199 192 198 205 213 225 200 195 208 248 247 247 251 252 254 244 236 231 236 241 242 252 265 272 280 282 287 293 297 293 291 292 289 288 300 292 289 275 260 244 234 230 231
198 201 202 210 217 208 192 192 203 228 256 261 261 259 265 268 256 237 231 235 241 244 239 244 259 265 271 275 285 290 284 283 280 284 289 279 271 271 266 269 262 243 228
197 203 207 213 220 217 203 202 203 222 247 257 260 257 256 262 266 260 258 249 240 241 236 233 239 247 252 253 253 259 264 270 265 259 248 261 260 257 264 262 260 251 236
197 202 205 214 221 222 208 207 203 222 238 248 251 252 249 250 249 243 245 252 257 259 256 249 233 236 242 247 247 256 260 266 272 268 252 257 262 261 258 259 257 250 240
200 206 211 213 219 223 210 207 202 225 243 251 252 249 247 246 248 238 239 246 254 257 263 272 263 252 248 248 241 234 241 252 262 267 255 256 265 272 275 259 257 254 245